{"data":{"norad_id":54251,"epoch":"2026-09-21T23:08:46.943808Z","epoch_age_seconds":35774,"freshness":"FRESH","line1":"1 54251U 22155A   26264.96443222  .00081102  00000+0  49851-3 0  9995","line2":"2 54251  97.6307  59.0797 0002355 329.9134  30.1996 15.76998206215003","mean_motion":15.76998206,"eccentricity":0.0002355,"inclination_deg":97.6307,"raan_deg":59.0797,"arg_perigee_deg":329.9134,"mean_anomaly_deg":30.1996,"bstar":0.00049851,"rev_number":21500,"period_min":91.312722774271,"perigee_km":337.36918478093,"apogee_km":340.53293325672,"semimajor_km":6717.0880590188,"source":"CELESTRAK","updated_at":"2026-09-22T09:00:25.143172Z"}}